STARLINK-3761

operational
NORAD ID: 52262 Int'l Des: 2022-041 Owner: SPXS Country: US Constellation: starlink
LEOCIRCULAR

About STARLINK-3761

Description loading...

Live Position

Loading 3D Globe...

Upcoming Passes

Altitude History

Altitude vs Time

uPlot chart will show altitude changes over time

Two-Line Element Set

1 52262U 22041B 25251.15429009 -.00001056 00000-0 -48261-4 0 9990
2 52262 53.2157 208.5032 0001525 92.2657 267.8510 15.08836817186805
Epoch: Sep 8, 2025 • Age: 12 hours

Current Status

Altitude 541.3 km
Velocity 7.60 km/s
Sub-Earth Point 33.28°N, 137.62°E
Launch Date Apr 21, 2022
Age 3.3 years
Type internet

Technical Details

Classification Payload
Mass 297.00 kg
Dry Mass 275.00 kg
Total Mass 297.00 kg
Length 0.20 m
Diameter 2.80 m
Span 9.00 m
Shape Box + pan
Manufacturer SPXS
Bus Type Starlink
Phase Status In Orbit
Owner/State SPXS/US

Large Constellations

Loading constellations...